Location: Eenumerhoogte
(53.3420°N, 6.7843°E)
Time: 22:38:43
(UTC+00:00)

Cosmos 1452 Rocket - Pass Details

Date: 15 May 2026
Orbit: 763 x 770 km, 74.1° (Epoch: 10 June)

Event Time Altitude Azimuth Distance (km) Brightness Sun altitude
Rises 20:04:07 0° 217° (SW) 3,218 6.7 -5.3°
Reaches altitude 10° 20:06:31 10° 221° (SW) 2,296 6.0 -5.5°
Maximum altitude 20:11:39 58° 301° (WNW) 888 4.3 -6.1°
Drops below altitude 10° 20:16:50 10° 21° (NNE) 2,313 6.3 -6.6°
Sets 20:19:16 0° 25° (NNE) 3,244 7.0 -6.9°
